Wind_Speed
15 16 17 18 19 20 21 22 23 24 24 23 24 23 22 22 21 20 19 18 17 17 16 15 14 13 12 12 12 12 13 14 15 18 20 21 22 24 25 26 27 28 28
16 18 19 19 20 22 23 24 25 25 26 26 25 25 24 23 22 21 21 20 19 18 17 16 16 15 14 14 13 13 13 15 16 18 20 22 23 24 25 27 28 28 29
18 19 20 21 22 23 25 26 27 27 27 28 27 26 26 25 24 23 22 22 20 20 19 18 17 17 16 15 15 15 15 15 17 18 20 22 24 26 26 27 28 29 29
20 21 22 23 24 25 27 28 28 29 29 29 29 28 28 27 26 25 24 23 22 22 21 20 19 19 18 18 18 18 18 18 18 19 20 22 24 26 27 28 29 29 30
22 23 24 25 26 28 29 30 30 31 30 31 31 30 29 28 28 27 26 25 25 24 23 22 22 21 20 20 20 20 20 20 20 21 21 22 24 26 28 29 30 30 31
24 25 26 27 29 30 30 32 32 32 32 32 32 32 31 30 29 28 28 27 27 26 26 25 25 24 24 24 23 23 23 23 23 24 24 24 25 26 28 30 30 31 31
27 28 29 30 31 32 32 33 34 34 34 34 34 33 33 32 31 30 29 28 29 29 29 29 28 28 28 27 27 26 26 26 26 26 26 27 27 27 28 30 31 32 33
29 30 32 33 34 34 35 35 36 35 35 35 35 35 35 35 34 33 32 31 31 32 32 32 32 32 31 31 31 30 29 28 28 28 28 28 28 29 30 31 32 33 33
31 32 33 34 35 36 37 37 37 36 36 36 37 38 38 38 37 36 35 34 33 34 35 35 35 35 35 35 35 33 32 32 32 32 31 31 31 31 31 32 33 33 34
33 34 35 36 37 38 38 38 37 38 38 39 40 41 41 40 39 38 37 37 36 36 37 37 38 38 38 37 37 37 35 35 34 34 34 34 33 33 33 33 33 34 34
35 36 37 38 39 39 39 39 39 40 41 42 42 42 42 41 40 39 38 38 38 39 39 38 39 40 39 38 38 38 37 37 37 36 36 36 35 34 34 34 34 34 34
37 38 39 40 41 41 41 41 41 42 43 43 43 43 43 42 41 41 40 40 40 41 41 40 40 40 39 38 37 38 38 38 38 37 37 37 37 36 35 34 34 35 35
39 40 41 41 42 43 43 43 43 43 44 44 44 44 44 44 43 42 42 41 41 42 42 41 40 39 38 37 37 37 38 38 37 37 38 38 37 36 36 35 35 35 35
42 42 43 43 44 44 45 45 45 45 45 46 46 46 45 45 44 43 42 42 42 42 42 40 39 39 38 37 36 36 36 37 37 36 37 37 38 37 37 37 37 37 36
43 43 44 45 45 46 47 47 47 47 47 48 48 47 47 46 45 44 44 44 43 42 41 40 39 39 38 38 37 36 36 37 38 38 38 38 39 39 38 38 38 37 38
44 45 46 47 47 48 48 48 49 49 49 50 50 49 48 48 47 46 45 45 44 43 42 40 40 40 39 39 38 37 37 38 39 39 39 39 41 41 40 40 39 38 38
47 47 48 49 49 50 50 50 50 50 50 50 50 50 49 48 48 47 46 45 45 44 43 42 41 40 39 39 39 38 38 38 40 40 40 39 40 41 41 41 40 39 38
48 49 50 50 51 51 51 51 51 50 50 50 51 51 50 49 48 48 47 46 45 44 43 42 41 40 39 39 39 38 38 39 40 40 40 40 41 41 41 41 40 39 38
49 50 51 51 51 52 52 52 52 52 52 52 51 51 51 50 50 49 48 47 45 44 43 42 41 40 39 38 39 38 38 38 40 40 39 40 40 41 41 41 40 38 38
51 51 52 52 52 52 53 53 53 53 53 52 52 52 52 51 50 49 47 45 44 43 42 41 41 40 39 38 39 38 38 39 40 40 40 41 41 41 42 41 40 39 39
52 52 53 53 53 54 54 55 55 54 53 53 53 53 52 51 49 48 46 45 44 43 42 41 40 39 38 38 38 38 38 39 39 41 41 42 42 42 42 40 40 39 39
54 54 54 55 55 55 56 56 55 55 54 54 53 52 51 50 48 47 46 45 44 42 40 40 39 38 37 37 37 38 38 39 39 40 41 42 42 43 42 40 39 40 40
55 56 56 56 57 57 57 56 56 56 55 54 53 52 50 49 48 46 45 43 42 41 39 38 38 37 37 36 37 38 37 38 39 39 41 42 42 43 43 41 40 41 41
57 57 58 58 58 58 57 57 57 56 55 54 52 51 49 48 47 45 44 43 42 40 39 38 38 38 37 36 35 35 36 36 37 39 42 42 42 43 42 42 41 41 41
58 59 60 60 59 58 57 57 56 56 54 53 52 50 48 46 45 44 43 42 41 39 38 39 38 38 37 36 35 34 35 37 37 40 43 43 43 43 42 43 42 42 41
60 60 61 60 58 58 57 56 56 55 53 52 51 49 47 46 45 43 42 41 40 39 37 37 37 37 37 37 36 35 35 36 38 40 43 44 44 44 43 43 42 41 41
Wind_Direction
311 314 315 317 318 319 320 321 322 322 322 322 321 320 318 316 315 315 315 315 315 313 309 308 306 300 294 288 281 272 260 249 242 238 235 232 230 229 228 227 227 226 226
310 313 314 315 316 317 318 318 318 318 318 318 317 315 313 311 310 309 309 308 308 309 308 305 302 296 291 287 281 274 264 253 247 243 240 236 234 231 230 230 229 228 228
307 310 311 313 315 316 316 316 316 315 315 315 315 312 310 307 305 303 303 301 300 301 301 300 299 295 288 284 280 275 266 258 252 248 245 240 236 233 231 230 230 231 231
305 306 308 311 312 314 314 315 315 314 312 312 312 310 308 305 302 299 298 295 294 294 293 292 293 293 288 282 278 274 268 260 255 251 248 244 238 235 233 233 232 232 232
304 305 306 308 310 312 313 314 314 313 312 312 311 310 307 304 301 298 297 293 290 289 287 287 287 288 287 283 278 274 269 261 256 252 249 246 242 238 236 234 232 232 232
302 303 305 307 309 310 311 312 312 311 311 310 310 309 306 303 299 296 295 291 288 286 285 283 283 284 283 281 278 274 268 263 257 253 250 248 244 240 237 234 233 232 231
301 302 303 305 307 309 311 311 311 309 308 309 309 308 306 303 298 294 292 288 286 285 284 282 281 281 280 278 275 272 268 264 259 255 251 248 245 242 238 235 234 233 232
301 303 304 305 306 308 310 310 310 308 307 307 307 308 306 303 299 294 293 289 285 284 282 281 279 278 278 276 273 269 266 262 258 255 252 248 246 243 239 236 235 234 233
302 303 304 305 306 307 308 309 308 306 305 305 306 306 305 302 299 294 293 291 287 284 282 280 279 277 275 274 272 268 264 260 256 253 250 248 245 243 241 239 237 236 235
301 302 304 305 306 307 307 307 306 306 305 305 305 306 305 302 298 294 291 289 286 283 282 280 278 277 275 273 270 267 262 258 255 252 249 246 244 242 241 240 238 236 235
301 301 303 304 305 306 306 306 305 305 306 306 305 306 305 303 298 295 292 290 287 285 283 280 278 276 274 272 269 266 261 257 253 250 247 243 242 242 241 240 238 237 235
300 301 302 303 304 305 305 305 304 305 305 305 305 304 305 303 299 294 292 291 289 287 285 282 279 275 273 270 268 265 261 256 252 248 245 242 241 241 240 239 238 238 236
299 300 301 302 303 304 305 304 304 304 304 305 304 304 303 302 298 294 291 290 289 288 286 283 279 274 270 268 266 265 261 255 251 246 243 241 239 239 239 238 238 238 238
299 300 300 301 302 303 303 303 303 303 304 304 303 303 302 301 298 294 291 290 289 287 287 283 279 275 270 266 264 262 260 254 250 245 242 241 239 238 237 237 237 238 239
298 299 300 300 301 302 303 303 302 303 303 304 303 302 301 300 299 295 291 290 289 288 285 281 278 274 270 265 263 262 259 254 249 246 242 240 238 237 236 236 237 239 238
298 298 300 300 300 301 302 302 302 302 303 303 302 301 300 299 299 296 292 290 289 287 284 281 279 275 271 265 262 260 258 254 249 246 242 240 237 238 237 236 237 238 238
298 299 299 300 300 301 301 302 301 301 302 302 302 300 299 298 298 296 293 290 288 285 283 280 279 276 271 265 262 260 257 254 250 246 242 240 235 236 235 235 235 236 237
299 299 300 300 301 301 301 301 302 301 301 301 301 300 299 298 297 296 294 291 287 284 281 279 278 276 270 265 261 258 256 253 248 245 242 239 235 234 234 234 234 234 235
299 300 300 301 300 301 301 302 302 302 302 302 301 300 298 296 295 294 293 290 287 283 280 278 277 276 270 264 260 258 254 251 246 243 241 236 233 232 232 232 231 232 232
299 300 300 300 300 300 301 301 302 302 302 302 301 300 298 296 294 293 291 289 286 284 281 278 275 274 270 265 260 258 254 250 245 242 239 234 231 230 230 231 230 230 230
299 300 300 300 300 300 300 301 301 301 301 301 301 300 298 296 294 292 290 288 286 283 279 276 274 271 267 263 260 256 253 249 244 241 238 233 230 229 228 229 230 228 229
299 300 300 301 300 300 300 300 300 300 300 301 300 299 297 295 293 292 290 287 285 282 278 274 271 268 265 261 259 256 253 248 242 239 235 231 229 227 226 227 228 227 228
298 299 300 301 300 300 300 299 299 299 299 300 299 297 296 294 292 291 289 286 284 280 276 273 270 266 263 261 259 256 252 246 240 237 233 230 229 227 226 227 227 227 228
298 299 300 300 300 300 299 299 298 298 298 298 297 296 294 293 291 289 287 285 283 279 275 271 268 265 261 259 257 253 248 244 240 235 231 230 229 227 227 226 227 227 227
297 298 300 300 300 299 298 298 297 297 297 297 296 295 292 290 289 288 286 284 282 279 275 272 267 263 258 255 254 251 247 242 238 234 231 229 229 227 226 226 226 226 227
296 298 299 299 298 298 297 297 298 297 296 296 294 293 290 289 287 286 284 282 281 280 276 271 267 262 255 253 251 249 245 241 236 233 231 228 227 226 226 226 225 225 225
Height
5847 5845 5842 5840 5837 5834 5831 5827 5824 5820 5816 5813 5809 5806 5803 5800 5797 5795 5793 5791 5789 5787 5785 5784 5783 5781 5780 5779 5779 5778 5779 5779 5781 5782 5783 5785 5787 5790 5792 5795 5799 5802 5805
5843 5841 5838 5836 5833 5830 5826 5823 5819 5815 5811 5808 5804 5800 5797 5794 5792 5790 5788 5786 5785 5783 5781 5780 5779 5778 5777 5776 5775 5775 5775 5775 5776 5777 5778 5780 5782 5784 5787 5790 5793 5796 5799
5839 5836 5834 5831 5828 5825 5821 5817 5813 5809 5805 5801 5798 5794 5791 5788 5786 5784 5782 5781 5780 5778 5777 5776 5774 5773 5772 5772 5771 5771 5770 5770 5771 5772 5773 5774 5776 5778 5781 5784 5787 5790 5793
5834 5832 5829 5826 5823 5819 5815 5811 5807 5803 5799 5795 5790 5787 5783 5780 5778 5777 5775 5774 5773 5772 5771 5770 5769 5768 5767 5766 5766 5765 5765 5765 5766 5766 5767 5768 5770 5772 5775 5777 5780 5783 5786
5829 5826 5823 5820 5817 5813 5809 5805 5801 5796 5792 5787 5783 5779 5775 5772 5770 5768 5766 5766 5765 5765 5764 5763 5762 5762 5761 5760 5759 5759 5759 5759 5759 5760 5761 5762 5764 5765 5768 5770 5773 5776 5779
5823 5820 5817 5814 5810 5806 5802 5798 5793 5789 5784 5780 5776 5771 5767 5764 5761 5759 5757 5756 5756 5756 5756 5755 5755 5754 5753 5753 5752 5752 5752 5752 5752 5753 5754 5755 5757 5758 5760 5763 5765 5768 5772
5816 5813 5809 5806 5803 5799 5794 5790 5785 5781 5776 5772 5767 5763 5759 5755 5752 5750 5748 5747 5747 5747 5746 5746 5746 5745 5744 5744 5744 5743 5743 5743 5744 5745 5746 5747 5749 5751 5753 5755 5758 5760 5764
5808 5805 5802 5798 5794 5790 5786 5781 5777 5772 5768 5764 5759 5755 5751 5747 5743 5740 5739 5738 5737 5737 5736 5735 5735 5735 5734 5734 5733 5733 5733 5734 5735 5735 5737 5738 5740 5742 5744 5747 5749 5752 5755
5800 5796 5793 5789 5785 5781 5777 5772 5768 5764 5759 5755 5750 5746 5741 5737 5733 5730 5728 5727 5726 5726 5724 5723 5723 5722 5722 5721 5721 5722 5722 5723 5724 5725 5726 5728 5730 5732 5735 5737 5740 5743 5747
5791 5788 5784 5780 5776 5772 5767 5763 5758 5754 5750 5745 5740 5735 5731 5726 5722 5719 5717 5715 5714 5713 5712 5711 5710 5709 5708 5707 5707 5708 5709 5710 5711 5713 5715 5717 5720 5722 5725 5728 5731 5734 5738
5782 5779 5775 5771 5766 5762 5757 5753 5748 5744 5740 5735 5730 5724 5719 5715 5711 5708 5705 5703 5701 5700 5699 5697 5696 5695 5694 5693 5693 5693 5694 5696 5697 5700 5702 5705 5709 5712 5715 5718 5721 5725 5728
5773 5769 5765 5761 5756 5752 5747 5742 5737 5733 5728 5723 5718 5713 5708 5703 5699 5696 5693 5690 5688 5686 5685 5683 5681 5680 5679 5679 5679 5679 5680 5681 5683 5686 5690 5693 5697 5701 5705 5708 5711 5715 5718
5763 5759 5755 5751 5746 5741 5736 5731 5726 5721 5717 5712 5707 5702 5697 5692 5687 5684 5681 5678 5675 5672 5670 5668 5666 5665 5665 5665 5665 5666 5666 5667 5670 5673 5677 5681 5686 5690 5694 5697 5701 5704 5707
5753 5748 5744 5740 5735 5730 5725 5719 5714 5709 5704 5700 5694 5690 5685 5680 5675 5671 5668 5665 5662 5659 5656 5654 5652 5651 5651 5651 5652 5653 5653 5655 5657 5661 5665 5669 5673 5678 5682 5686 5690 5694 5697
5741 5737 5732 5728 5723 5718 5713 5707 5702 5697 5691 5686 5682 5677 5672 5668 5663 5658 5654 5651 5648 5645 5643 5641 5639 5638 5638 5638 5639 5640 5641 5643 5645 5648 5652 5656 5661 5665 5670 5675 5679 5683 5687
5729 5725 5720 5715 5710 5705 5700 5695 5689 5684 5678 5672 5667 5662 5658 5653 5649 5645 5641 5637 5634 5631 5629 5627 5626 5625 5624 5625 5626 5627 5628 5630 5632 5635 5639 5643 5648 5652 5657 5662 5667 5671 5675
5717 5712 5707 5702 5697 5692 5687 5682 5677 5672 5665 5659 5654 5648 5644 5639 5635 5630 5626 5623 5619 5616 5614 5613 5612 5611 5610 5610 5611 5613 5615 5616 5619 5622 5626 5629 5634 5639 5644 5649 5654 5659 5663
5703 5698 5694 5689 5683 5678 5672 5667 5662 5657 5653 5647 5641 5635 5629 5625 5620 5615 5611 5608 5605 5602 5600 5598 5597 5596 5596 5596 5597 5599 5600 5602 5605 5608 5612 5616 5621 5626 5631 5636 5641 5646 5651
5689 5684 5679 5674 5669 5663 5658 5652 5647 5642 5637 5632 5627 5621 5615 5610 5605 5601 5596 5592 5590 5588 5586 5584 5583 5582 5581 5582 5583 5585 5586 5588 5592 5595 5599 5603 5608 5613 5618 5623 5629 5634 5639
5675 5670 5665 5659 5654 5649 5643 5638 5632 5626 5621 5616 5611 5605 5600 5595 5591 5586 5582 5578 5575 5573 5571 5569 5569 5567 5567 5567 5569 5571 5572 5575 5578 5581 5585 5590 5595 5600 5605 5610 5616 5622 5628
5661 5656 5650 5645 5639 5633 5628 5622 5616 5611 5605 5600 5595 5589 5583 5579 5575 5571 5567 5564 5561 5558 5556 5555 5554 5554 5553 5554 5555 5557 5559 5561 5565 5568 5572 5577 5583 5588 5593 5599 5605 5610 5616
5647 5641 5636 5630 5624 5618 5612 5606 5600 5595 5589 5583 5578 5573 5568 5563 5559 5556 5553 5549 5546 5544 5542 5541 5540 5540 5540 5540 5541 5543 5546 5548 5552 5555 5559 5565 5570 5576 5582 5587 5593 5599 5605
5632 5626 5620 5614 5608 5602 5596 5590 5584 5578 5573 5568 5562 5558 5553 5549 5545 5541 5538 5535 5532 5530 5528 5527 5527 5527 5527 5527 5529 5530 5533 5536 5539 5543 5548 5553 5559 5565 5571 5576 5582 5588 5594
5616 5610 5604 5599 5592 5586 5580 5574 5568 5562 5557 5551 5547 5542 5538 5534 5530 5526 5524 5521 5519 5517 5515 5514 5514 5514 5515 5515 5517 5518 5520 5523 5526 5531 5536 5541 5547 5553 5559 5565 5571 5577 5583
5599 5594 5588 5582 5576 5570 5564 5558 5552 5547 5541 5536 5531 5527 5523 5519 5515 5512 5509 5507 5505 5503 5502 5501 5500 5501 5501 5503 5504 5506 5509 5512 5515 5519 5524 5530 5536 5542 5548 5554 5560 5566 5572
5583 5577 5571 5565 5559 5553 5547 5542 5536 5531 5526 5521 5516 5511 5507 5504 5501 5498 5495 5493 5491 5489 5488 5487 5487 5487 5488 5490 5492 5495 5497 5500 5504 5508 5513 5519 5525 5531 5537 5543 5549 5555 5561